Regional Weather Roundup
Issued by NWS

Home | Current Version | Previous Version | Graphics & Text | Print | Product List | Glossary On
Versions: 1 2 3 4 5 6 7 8 9 10 11 12 13 14 15 16 17 18 19 20 21 22 23 24 25 26 27 28 29 30 31 32 33 34 35 36 37 38 39 40 41 42 43 44 45 46 47 48 49 50
000
ASUS43 KIND 251459
RWRIN

WEATHER ROUNDUP FOR INDIANA
NATIONAL WEATHER SERVICE INDIANAPOLIS IN
1000 AM EST SAT FEB 25 2017

NOTE: "FAIR" INDICATES FEW OR NO CLOUDS BELOW 12,000 FEET WITH NO
SIGNIFICANT WEATHER AND/OR OBSTRUCTIONS TO VISIBILITY.

* - STATION DOES NOT REPORT WEATHER SUCH AS PRECIPITATION OR FOG.

+ - STATION NOT QUALITY CONTROLLED BY THE NATIONAL WEATHER SERVICE.
    USE DATA WITH CAUTION...ESPECIALLY DEWPOINT AND RELATIVE
    HUMIDITY OBSERVATIONS.

INZ001>003-010>013-019-020-251600-
NORTHWEST INDIANA

CITY           SKY/WX    TMP DP  RH WIND       PRES   REMARKS
GARY /AIRPORT/ CLOUDY    27  12  54 W15G31    29.81R WCI  15
KNOX *+        CLOUDY    27   1  33 W21G29    29.77R WCI  13
MICHIGAN CITY+ FLURRIES  27  19  74 W15G24    29.77R WCI  15
RENSSELAER +   FLURRIES  27  19  74 W22       29.83R WCI  12

$$

LMZ046-743>745-251600-
SOUTHERN LAKE MICHIGAN

STATION/POSITION TIME  TEMP    WIND        PRES    WAVE
                       AIR SEA DIR/SP/G            HT
                 (UTC) (F)     (DEG/KT/KT) (MB)    (FT)
BURNS HARBOR     1440   26     290/ 23/ 25 1008.8R
MICHIGAN CITY    1430   26     250/ 25/ 29   N/A

$$

INZ004-005-014>016-021>024-251600-
NORTH CENTRAL INDIANA

CITY           SKY/WX    TMP DP  RH WIND       PRES   REMARKS
ELKHART        FLURRIES  27  19  74 W18       29.71R WCI  13
GOSHEN         CLOUDY    28  21  75 W16G28    29.70R WCI  16
SOUTH BEND     CLOUDY    26  18  71 W23G31    29.73R WCI  11

$$

INZ006>009-017-018-025>027-251600-
NORTHEAST INDIANA

CITY           SKY/WX    TMP DP  RH WIND       PRES   REMARKS
ANGOLA *+      CLOUDY    28  27  93 W10       29.65R WCI  19
FORT WAYNE     FLURRIES  32  24  72 W16G26    29.70R WCI  21
KENDALLVILLE + FLURRIES  30  24  78 W17G28    29.67R WCI  18

$$

INZ028-029-035-036-043>045-051>053-251600-
WEST CENTRAL INDIANA

CITY           SKY/WX    TMP DP  RH WIND       PRES   REMARKS
LAFAYETTE      CLOUDY    25  18  74 W22G33    29.84R WCI  10
TERRE HAUTE    FLURRIES  27  14  58 W22G32    29.93R WCI  13

$$

INZ030>032-037>040-046>048-054>057-064-065-251600-
CENTRAL INDIANA

CITY           SKY/WX    TMP DP  RH WIND       PRES   REMARKS
COLUMBUS       FLURRIES  30  27  86 W23G31    29.87R WCI  17
GREENWOOD *+   CLOUDY    30  23  75 W15G29    29.84R WCI  19
INDIANAPOLIS   FLURRIES  28  19  69 W24G31    29.84R WCI  14
-EAGLE CREEK   LGT SNOW  28  21  75 W15G22    29.83R WCI  16
KOKOMO +       FLURRIES  28  23  81 W24G35    29.78R WCI  14
MT COMFORT *+  CLOUDY    28  21  74 W23G33    29.82R WCI  14
SHELBYVILLE    CLOUDY    31  21  66 W23G30    29.83R WCI  18

$$

INZ033-034-041-042-049-050-058-059-251600-
EAST CENTRAL INDIANA

CITY           SKY/WX    TMP DP  RH WIND       PRES   REMARKS
MUNCIE         CLOUDY    31  25  78 W20G31    29.76R WCI  19

$$

INZ060-061-067>069-081>083-085>088-251600-
SOUTHWEST INDIANA

CITY           SKY/WX    TMP DP  RH WIND       PRES   REMARKS
EVANSVILLE     CLOUDY    31  20  63 W18G25    30.01R WCI  19
HUNTINGBURG *+ CLOUDY    30  21  69 W16       29.98R WCI  19

$$

INZ062-063-066-070>080-084-089>092-251600-
SOUTH CENTRAL AND SOUTHEAST INDIANA

CITY           SKY/WX    TMP DP  RH WIND       PRES   REMARKS
BLOOMINGTON    FLURRIES  29  19  66 W15G31    29.88R WCI  18
MADISON *+     CLOUDY    32  27  80 W12G21    29.88R WCI  23
SEYMOUR +      CLOUDY    34  23  64 W21G29    29.89R WCI  22

$$




USA.gov is the U.S. government's official web portal to all federal, state and local government web resources and services.